Regional Weather Roundup
Issued by NWS State College, PA

Home | Current Version | Previous Version | Graphics & Text | Print | Product List | Glossary Off
Versions: 1 2 3 4 5 6 7 8 9 10 11 12 13 14 15 16 17 18 19 20 21 22 23 24 25 26 27 28 29 30 31 32 33 34 35 36 37 38 39 40 41 42 43 44 45 46 47 48 49 50

000
ASUS41 KCTP 181403
RWRCTP

REGIONAL WEATHER ROUNDUP
NATIONAL WEATHER SERVICE STATE COLLEGE PA
1000 AM EDT THU SEP 18 2014

Note: "fair" indicates few or no clouds below 12,000 feet with no
significant weather and/or obstructions to visibility.

* = STATION THAT DOES NOT REPORT PRECIPITATION /E.G. RAIN...SNOW...ETC/
    THUNDER OR FOG.

PAZ002>004-007>009-013>016-020>023-029>032-181500-
WESTERN PENNSYLVANIA

CITY           SKY/WX    TMP DP  RH WIND       PRES   REMARKS
ERIE           SUNNY     61  50  67 CALM      30.08R
MEADVILLE      SUNNY     59  51  75 CALM      30.09R
FRANKLIN*      SUNNY     55  46  71 N5        30.10R
NEW CASTLE     NOT AVBL
BEAVER COUNTY  SUNNY     59  48  67 N5        30.08R
BUTLER*        SUNNY     57  48  72 N6        30.09S
PITTSBURGH INT MOSUNNY   60  48  64 NE10      30.07R
PITTSBURGH     SUNNY     60  47  61 VRB7      30.07R
INDIANA*       SUNNY     57  50  77 CALM      30.11R
LATROBE        MOSUNNY   55  54  94 CALM      30.09R
WASHINGTON CO* SUNNY     61  50  67 NE7       30.08S
$$

PAZ004>006-010>012-017>019-024>028-033>037-041-042-045-046-049>053-181500-
CENTRAL PENNSYLVANIA

CITY           SKY/WX    TMP DP  RH WIND       PRES   REMARKS
BRADFORD       SUNNY     56  48  74 NW3       30.08R
DUBOIS         SUNNY     55  50  83 N6        30.07R
CLEARFIELD     MOSUNNY   53  50  89 CALM      30.08R
JOHNSTOWN      PTSUNNY   56  45  66 N5        30.07R
ALTOONA        MOSUNNY   57  52  83 CALM      30.07R
STATE COLLEGE  PTSUNNY   54  52  94 CALM      30.06R FOG
WILLIAMSPORT   CLOUDY    53  50  89 NW6       30.05R FOG
SELINSGROVE    SUNNY     58  52  80 CALM      30.05S
FT INDIANTOWN  PTSUNNY   60  54  83 CALM      30.03R
CAPITAL CITY   CLOUDY    62  51  67 W3        30.03R
HARRISBURG     MOSUNNY   63  51  65 SW3       30.02R
YORK           PTSUNNY   62  53  72 CALM      30.02R
$$

PAZ038>040-043-044-047-048-054-055-060>062-067>071-181500-
EASTERN PENNSYLVANIA

CITY           SKY/WX    TMP DP  RH WIND       PRES   REMARKS
SCRANTON       MOSUNNY   57  46  66 W3        30.05R
MOUNT POCONO   MOSUNNY   61  46  57 N6        30.05R
ALLENTOWN      MOSUNNY   58  51  78 CALM      30.03S
QUAKERTOWN*    PTSUNNY   61  54  77 CALM      30.04R
READING        PTSUNNY   58  51  78 CALM      30.02R
LANCASTER      PTSUNNY   60  53  77 CALM      30.03R
COATESVILLE    PTSUNNY   63  57  82 CALM      30.04R
POTTSTOWN      CLOUDY    58  53  84 CALM      30.04R
BLUE BELL      SUNNY     64  54  68 CALM      30.01S
DOYLESTOWN     CLOUDY    65  53  65 CALM      30.02R
WILLOW GROVE   NOT AVBL
NORTH PHILA    PTSUNNY   71  50  47 W5        30.03R
PHILADELPHIA   PTSUNNY   69  55  60 VRB3      30.02R
$$


USA.gov is the U.S. government's official web portal to all federal, state and local government web resources and services.